ROMMA est une association bénévole à but non lucratif. Votre soutien est indispensable : ADHERER à ROMMA ou FAIRE un DON

Voiron - (38, Isère)

Voironnais (300 m)   Longitude: 05° 35' E   Latitude: 45° 23' N Station partenaire n°109
 

Détail journalier du     <<     >>

Température Precipitation Humidité Pression Vent Dir Rafale Dir. rafale Ensol.
Heure (°C) (mm) (%) (hPa) (km/h) (km/h) (min)
01:00 7.408510242NNO5NNO0
02:00 6.108710242NNO5NNO0
03:00 5.408810242NNO5NNO0
04:00 4.809010242NNO10NNO0
05:00 4.409010241N10NNO0
06:00 4.009110242SE8NNO0
07:00 3.909110232SE6NO0
08:00 4.608910233SSO11NO0
09:00 7.208110245SE31SSE30
10:00 9.0074102315SSE32SSE60
11:00 10.8069102310S27SSE60
12:00 11.8067102210S21S60
13:00 13.306110219SSE21S60
14:00 15.105310206SE16SSE60
15:00 15.804910206SSE19SE60
16:00 16.904610193ESE11ENE60
17:00 16.704310182N6SSE60
18:00 16.104710171SE8SSE60
19:00 14.105810172SE8SE0
20:00 12.106510172SE6SE0
21:00 10.606910162N5N0
22:00 9.507110172NNO6N0
23:00 8.607410161NNO6NNO0
minuit 8.107510152NNO8NNO0

Graphique du 03-03-2019

 

Serveur OMMA